GFSMW_sfc_temp_273.txt.gz
Temp
80 80 81 80 78 76 74 75 75 75 74 74 74 74 75 76 76 77 80 80 79 79 76 75 74 75 74 75 75 74 72 73 70 70 70 71 72 70 69 69 68 68 68
74 78 79 78 77 76 75 74 75 75 74 74 76 76 75 77 77 77 79 79 80 80 78 76 75 76 75 73 76 74 72 71 70 67 65 67 71 68 69 68 69 67 68
75 76 77 77 78 77 74 74 75 75 74 75 75 75 76 76 77 77 78 79 80 79 79 77 75 74 75 74 74 74 73 70 71 70 67 63 65 64 68 67 67 68 67
79 78 77 76 77 79 79 76 76 77 76 75 74 75 74 73 76 75 76 78 80 79 79 78 77 75 74 73 74 76 73 70 70 69 70 67 68 63 63 65 65 68 67
80 79 79 79 79 81 79 76 75 76 76 74 75 74 72 73 74 74 75 76 77 79 80 79 78 77 74 74 74 74 73 72 70 69 67 65 67 66 62 60 63 63 65
81 81 82 82 80 81 81 79 74 74 74 74 74 73 73 73 71 73 74 75 75 77 78 79 77 77 76 75 75 74 74 72 71 70 69 65 64 65 63 61 61 62 62
81 81 79 79 79 79 79 79 74 74 72 73 73 72 73 73 73 72 73 73 74 75 76 76 77 77 77 76 74 74 74 73 70 70 68 67 67 67 65 63 61 60 61
81 81 81 80 81 80 80 80 76 76 72 73 73 72 72 71 72 72 72 73 73 74 76 76 78 78 78 77 75 74 74 73 71 70 69 67 67 68 67 65 62 59 59
81 82 81 82 80 78 80 80 78 77 73 74 74 71 71 71 71 72 71 71 72 74 75 77 77 77 77 75 74 73 73 73 71 70 70 68 68 68 68 67 65 65 58
77 82 81 82 80 79 74 76 78 79 78 76 75 75 73 72 72 72 71 72 72 73 74 75 75 76 76 75 73 72 73 73 72 71 70 69 69 68 68 68 66 64 63
79 81 82 83 83 80 76 76 79 80 75 76 76 76 75 73 73 72 72 72 72 72 73 73 73 73 73 74 72 72 73 72 72 71 70 70 69 69 69 68 64 62 60
79 79 81 82 82 81 79 79 81 80 79 77 76 77 75 74 73 73 74 73 72 73 72 73 72 73 74 74 72 73 74 73 71 71 71 71 70 69 68 67 63 63 60
73 72 75 75 76 74 74 76 79 79 78 77 76 74 73 73 73 74 75 74 74 73 74 74 75 74 74 74 74 74 74 71 72 71 71 71 69 69 68 66 64 61 62
72 68 67 69 70 70 71 72 73 76 74 76 75 74 74 74 74 74 74 74 74 74 72 73 73 73 73 73 73 74 73 72 72 72 72 71 69 69 68 65 64 63 58
69 68 67 68 69 69 70 70 71 72 73 73 73 73 73 74 73 72 71 71 72 72 71 72 73 73 73 76 73 72 71 71 71 72 71 71 70 70 68 67 63 60 56
70 69 69 70 69 69 69 69 68 69 71 71 70 70 71 70 70 70 71 71 71 72 72 72 72 72 75 70 66 68 69 70 70 70 68 68 70 68 67 68 67 65 58
70 69 70 70 70 69 69 68 67 68 68 68 67 68 68 69 69 70 70 70 70 70 70 71 71 71 72 66 64 65 68 69 70 68 65 65 66 66 65 65 65 65 65
71 70 70 70 70 68 68 69 69 69 69 69 69 69 70 69 69 69 69 69 70 69 69 69 71 72 71 63 62 63 69 69 69 67 65 63 62 62 62 61 62 61 60
73 72 72 71 69 69 69 69 67 68 68 68 68 69 69 68 68 67 68 68 68 68 67 69 68 67 62 57 58 64 68 70 69 67 66 63 61 61 61 62 61 59 56
72 70 71 70 70 68 69 68 66 66 66 67 68 68 68 67 66 66 66 65 67 68 66 68 66 62 63 57 56 59 66 67 69 68 65 63 63 59 59 62 60 58 56
70 71 70 70 69 69 69 66 65 65 66 67 67 67 66 65 65 64 63 62 63 63 63 67 66 65 60 60 55 55 62 62 64 67 65 63 57 57 56 59 63 60 56
68 70 69 69 68 68 67 64 63 63 66 66 66 65 65 66 64 62 61 61 60 60 60 64 65 64 63 56 55 54 55 58 63 66 66 61 55 54 54 57 56 55 57
68 70 68 64 65 66 67 64 61 62 63 64 63 64 64 62 62 61 59 59 59 58 65 62 62 62 63 61 55 54 54 57 60 61 61 58 52 51 55 56 54 56 56
67 65 65 63 61 63 64 65 62 62 61 61 61 61 63 61 61 60 59 58 57 58 59 60 59 59 59 58 55 54 56 57 59 58 60 59 58 57 59 58 57 60 57
62 64 63 62 60 62 62 62 62 61 60 59 59 59 60 60 58 57 56 57 56 56 59 58 56 56 53 53 47 46 50 52 52 50 60 59 59 59 59 59 59 59 58
61 61 61 61 61 62 61 61 62 62 59 58 58 59 59 59 58 56 55 51 50 50 46 46 50 52 50 45 45 45 44 44 45 56 61 60 59 59 59 59 59 60 59

GFSMW_sfc_temp_276.txt.gz
Temp
79 78 79 78 77 75 73 73 73 73 73 74 75 75 75 76 77 78 79 79 80 80 77 76 76 76 77 78 78 77 75 75 73 73 73 73 73 71 70 71 70 70 70
73 74 75 75 75 75 74 72 73 73 73 75 76 76 76 77 77 78 80 80 80 80 79 77 76 78 77 77 77 77 74 73 74 72 68 69 71 69 69 71 70 69 69
73 71 73 73 75 74 73 73 72 73 73 74 76 76 76 76 76 78 78 80 81 80 79 78 76 77 77 77 77 76 75 72 74 72 72 68 68 67 68 68 68 69 69
76 75 74 72 74 76 76 74 73 73 74 74 74 75 75 74 75 76 77 78 80 79 80 79 78 77 76 76 76 76 75 74 73 72 72 70 71 66 65 65 65 69 68
77 76 76 76 77 79 76 75 72 73 74 73 74 74 74 74 75 75 76 76 77 80 81 80 79 77 76 76 76 75 73 74 72 70 69 69 68 67 64 61 63 67 66
78 79 79 78 77 78 77 75 72 72 73 73 74 73 73 73 73 74 74 75 77 77 78 80 78 77 78 76 75 76 74 73 71 70 69 66 65 65 65 62 63 63 67
79 79 76 76 76 76 76 75 72 72 73 73 73 73 73 73 73 74 74 75 76 76 77 77 78 78 77 78 76 75 74 73 72 70 69 67 66 67 66 64 63 61 65
79 79 79 78 78 78 77 77 73 73 72 73 73 73 73 73 73 74 74 74 75 76 77 77 77 78 77 77 76 75 75 74 74 70 68 67 67 68 67 66 63 61 62
78 79 80 80 79 77 77 78 75 74 72 74 74 72 72 72 72 73 73 74 74 76 76 76 77 78 78 77 76 76 75 75 75 70 70 68 68 68 68 68 65 64 61
78 79 78 79 80 78 76 77 78 76 75 74 73 75 73 73 73 73 73 73 74 74 76 76 77 77 77 77 76 75 75 74 74 71 72 70 69 69 69 68 68 65 63
76 78 79 80 81 79 75 77 76 77 75 75 75 75 75 74 74 74 74 74 74 74 74 75 75 75 75 76 75 74 74 74 73 72 72 72 71 69 69 69 68 64 65
76 74 76 79 80 78 77 78 79 77 77 75 73 74 75 75 75 74 75 75 75 75 74 75 74 74 75 76 76 75 76 73 73 74 72 72 71 70 70 69 66 64 65
74 73 73 73 76 76 77 75 77 77 77 74 75 74 73 74 75 75 75 76 76 75 76 76 76 76 76 76 75 75 76 75 75 74 73 71 71 70 69 68 65 63 64
72 70 70 70 70 71 74 74 76 78 75 75 75 74 74 74 75 75 75 76 76 76 75 76 76 75 75 75 75 75 75 75 75 75 74 74 72 70 69 67 65 62 63
69 68 68 67 68 69 70 71 72 73 73 74 74 74 74 75 74 74 75 74 74 74 74 74 74 75 75 77 75 73 74 73 73 74 74 74 73 70 69 68 65 61 61
70 69 68 68 69 70 71 71 72 72 73 73 73 73 73 73 73 72 72 72 73 73 74 74 74 73 76 67 65 67 70 71 72 71 72 71 71 69 67 67 66 64 62
71 69 69 70 69 70 70 70 70 70 71 70 70 70 71 70 71 72 71 71 72 73 72 71 72 72 64 60 61 64 69 71 72 71 69 69 69 68 69 66 65 65 65
70 69 70 70 70 70 69 68 69 69 69 68 69 70 71 70 71 71 71 71 71 70 70 70 68 64 61 59 59 62 72 71 70 69 68 68 67 66 67 66 64 66 64
71 70 72 72 69 69 69 69 69 69 70 69 70 71 71 70 70 70 69 70 69 68 69 67 65 64 60 56 57 64 69 70 70 68 68 66 64 60 61 66 62 62 60
71 70 70 71 70 69 70 69 68 69 69 70 70 70 70 69 69 68 68 68 68 68 68 65 64 61 61 55 55 61 65 64 66 69 66 63 63 58 60 64 64 60 60
70 71 70 70 70 69 69 68 67 68 69 70 69 69 68 68 67 66 66 66 65 66 67 66 65 63 60 59 54 54 62 62 64 66 65 64 57 55 56 59 64 60 60
69 71 69 68 68 69 69 67 66 67 68 68 68 67 66 68 66 64 63 64 63 63 64 65 64 64 63 56 55 54 54 58 62 63 65 62 55 53 54 58 53 54 59
69 70 69 67 67 68 68 66 65 67 67 67 66 65 65 65 64 63 62 61 62 62 63 62 60 60 60 59 54 53 54 57 60 60 58 56 52 52 55 55 53 56 61
68 68 66 65 65 66 67 68 65 67 67 65 65 64 63 62 62 62 62 61 60 60 60 60 58 57 56 56 55 56 56 57 59 57 60 59 57 58 60 60 58 60 62
64 65 65 65 64 64 63 64 64 65 64 64 64 63 63 61 58 56 57 58 57 59 60 59 57 55 55 53 47 47 52 53 52 51 61 60 60 59 60 62 61 59 58
62 61 61 61 62 63 62 62 64 65 63 62 62 62 62 59 58 57 54 50 49 46 44 44 50 54 47 44 45 44 44 46 46 57 62 61 60 60 60 60 60 60 60

GFSMW_sfc_temp_279.txt.gz
Temp
89 90 89 89 88 86 84 83 84 83 84 85 86 87 88 91 92 92 89 89 90 90 88 91 88 88 87 86 87 86 81 87 86 84 84 85 84 80 75 73 71 71 71
88 88 88 87 86 86 84 83 83 83 83 86 87 88 89 91 90 91 89 90 89 90 89 88 88 86 88 85 86 83 84 86 83 79 80 81 84 82 79 74 73 70 73
87 87 85 85 87 85 84 83 82 83 83 84 87 86 87 88 89 90 91 92 90 90 89 88 87 86 86 89 85 84 81 84 82 79 77 77 78 79 80 74 68 71 72
88 88 86 84 86 87 87 85 84 83 83 83 85 84 87 87 89 89 90 91 89 89 89 88 87 87 89 86 87 86 82 82 82 78 74 74 73 68 70 71 67 70 72
89 89 88 86 87 88 88 86 84 83 83 83 84 86 84 88 89 89 86 86 88 87 89 89 88 87 88 87 85 84 83 80 79 75 73 71 70 69 66 63 65 66 69
90 89 90 88 87 89 88 88 83 81 82 82 83 82 83 85 86 87 87 89 90 91 88 89 88 87 87 86 86 84 84 81 80 78 70 68 66 66 65 64 64 64 71
89 88 86 85 86 86 87 88 84 81 83 83 83 83 83 83 83 84 88 87 90 90 89 87 86 89 88 87 85 84 82 82 81 80 69 68 68 67 67 66 64 63 67
90 89 89 87 87 87 86 87 85 82 83 83 83 83 83 86 86 85 87 88 88 89 87 87 87 87 87 87 86 86 84 82 82 80 70 70 69 68 67 66 65 62 62
88 89 91 90 89 87 86 87 86 84 84 84 84 83 83 83 85 84 84 87 85 88 86 86 86 86 87 86 85 87 84 80 81 77 73 75 69 71 68 68 67 64 60
87 89 89 89 90 90 90 89 88 85 85 85 85 85 84 83 84 84 83 84 85 84 84 85 86 85 86 86 84 85 85 82 83 79 79 78 71 70 70 69 69 67 63
89 89 89 88 90 92 91 90 89 88 86 86 86 85 85 84 84 84 84 84 85 82 83 82 81 84 84 84 83 83 83 82 82 81 81 80 76 71 71 70 69 64 64
92 91 91 92 90 90 88 88 88 88 87 86 84 84 84 84 84 83 85 85 84 85 84 84 83 83 84 84 83 82 83 82 82 82 82 80 77 73 71 70 68 64 64
86 89 89 88 89 89 87 86 87 88 88 85 84 83 82 82 82 82 84 84 84 84 86 84 83 84 84 83 83 82 82 82 82 82 82 81 78 74 73 71 67 64 64
84 86 85 84 84 84 85 85 88 90 87 85 85 83 83 83 84 84 84 84 84 82 81 84 83 82 82 82 82 82 82 81 82 82 82 82 79 75 73 71 67 64 65
82 83 82 82 82 81 82 83 85 86 86 83 84 84 85 85 84 84 84 84 83 83 82 82 82 82 83 82 73 76 75 76 80 81 82 80 75 72 74 71 66 69 65
83 83 82 82 81 80 81 82 82 82 84 82 83 84 83 83 82 83 83 81 79 79 79 81 80 76 75 61 62 69 78 80 78 75 77 75 73 71 67 68 68 69 69
82 83 82 82 81 82 82 82 82 83 81 82 82 82 82 81 80 81 80 80 80 80 78 75 72 67 65 60 61 65 80 74 72 71 72 73 72 71 71 66 65 65 66
76 81 83 83 83 81 82 84 83 81 82 81 81 81 80 80 79 79 79 79 79 78 74 71 68 66 65 58 59 64 78 77 76 74 73 71 70 68 74 69 66 65 71
78 79 83 83 82 80 77 81 81 81 81 80 79 80 80 79 79 78 78 78 76 73 72 70 70 67 64 56 57 68 77 75 76 75 72 71 67 61 64 68 64 65 68
79 79 83 83 81 80 76 80 80 80 79 79 79 79 79 79 78 78 76 76 75 74 76 72 71 62 66 55 54 63 76 70 71 73 72 61 66 59 61 67 66 67 61
79 81 80 81 80 80 80 79 77 78 80 80 79 78 78 77 77 76 74 75 75 74 73 68 67 67 65 63 54 54 73 72 68 68 69 67 57 55 56 60 62 61 61
78 81 79 79 79 78 78 77 77 77 79 78 77 76 76 77 76 74 73 74 73 73 67 66 65 66 68 55 55 53 54 59 68 65 65 67 54 53 54 61 54 55 62
75 79 78 77 76 77 78 77 74 74 75 75 73 74 74 74 73 72 72 73 72 74 72 66 63 69 71 70 57 56 54 57 69 64 59 55 52 52 58 54 54 56 71
72 71 74 74 73 74 74 77 74 73 70 72 71 71 70 70 72 74 74 74 73 73 72 70 70 71 69 66 64 64 68 61 65 61 64 59 61 59 63 65 64 74 73
68 69 68 71 72 72 71 72 72 73 70 69 70 69 69 68 60 57 61 62 58 65 70 69 69 69 67 61 49 48 60 62 57 58 64 62 61 63 65 70 72 72 70
66 66 66 64 64 64 64 65 69 70 67 66 66 68 66 64 63 60 55 49 48 45 44 43 54 62 48 45 44 43 45 46 47 61 62 62 62 61 61 62 65 66 67

GFSMW_sfc_temp_282.txt.gz
Temp
97 98 97 97 96 95 93 91 90 90 91 92 92 94 95 98 99 100 97 96 97 97 96 99 97 96 94 91 91 92 91 94 89 92 88 92 94 90 89 86 85 82 76
96 97 97 96 96 95 92 90 90 89 89 93 93 95 96 99 99 100 98 97 96 98 97 94 96 94 95 91 91 89 89 91 87 81 81 83 87 83 84 85 81 79 72
96 96 95 95 96 94 93 91 89 90 90 91 93 93 93 94 96 97 99 98 96 97 95 94 94 93 92 95 92 91 87 88 87 79 77 76 75 76 81 81 83 77 72
97 98 96 95 96 96 96 93 91 90 90 90 91 88 92 93 98 97 100 97 96 96 96 94 93 92 95 92 94 96 90 88 85 79 78 77 73 66 64 71 69 70 70
98 98 99 97 98 98 98 96 91 90 90 89 89 91 88 95 97 97 93 93 94 95 96 95 93 92 95 94 91 89 89 89 87 86 79 72 70 68 64 61 66 67 68
100 99 100 100 98 99 98 97 92 88 88 88 88 87 88 90 93 93 94 97 99 100 97 95 94 93 93 92 93 91 89 87 88 90 83 70 73 65 63 61 63 65 68
99 99 98 97 97 97 97 97 92 87 89 89 88 88 88 88 89 89 94 94 97 98 97 93 92 94 93 92 91 90 89 89 89 87 85 77 84 69 66 62 63 63 67
101 99 100 98 97 96 96 96 94 89 89 89 88 88 88 92 93 92 94 95 96 97 96 93 93 92 92 92 91 90 93 90 89 87 84 87 88 70 68 65 64 63 64
100 100 102 101 99 98 97 97 95 91 90 90 89 88 88 88 93 92 92 94 93 96 93 92 92 92 92 91 90 90 90 89 88 87 83 82 82 77 72 68 68 65 60
99 101 101 101 102 102 101 99 97 93 92 93 91 91 90 89 90 91 89 91 93 91 90 90 91 91 91 91 89 90 91 88 88 85 85 84 83 77 72 69 73 70 63
101 101 102 102 104 105 103 101 99 97 93 94 94 92 92 91 90 90 90 90 91 90 89 89 89 89 89 89 88 87 88 87 86 86 84 85 85 77 72 72 72 67 65
103 104 102 103 102 102 102 101 99 97 96 93 92 91 91 91 91 90 91 92 90 91 90 90 89 89 89 89 88 87 87 85 85 86 85 84 85 79 75 75 71 67 66
99 101 102 99 100 100 99 98 97 98 98 94 92 90 89 88 88 88 89 90 90 90 92 91 88 88 89 87 87 86 86 86 87 84 82 82 82 79 77 75 69 67 66
94 97 97 97 96 96 96 96 97 99 97 94 92 90 90 89 89 89 89 89 89 90 90 90 89 88 88 87 87 86 85 85 84 85 85 83 80 78 77 73 68 66 66
92 93 93 93 93 92 92 92 94 97 97 92 91 90 91 92 91 91 91 91 90 90 90 89 88 87 88 86 78 80 81 83 84 84 84 82 76 71 74 71 68 67 65
87 88 91 92 91 90 90 90 90 92 94 91 90 91 90 91 89 90 90 89 89 89 87 87 87 83 87 61 62 68 85 80 80 78 78 79 76 72 67 69 69 68 65
85 86 86 89 90 91 90 91 90 91 89 88 89 89 89 88 88 89 88 88 87 86 86 83 81 79 78 60 61 64 80 83 81 81 81 79 76 72 70 65 65 65 66
83 85 87 89 92 93 91 90 93 89 88 88 88 89 88 88 88 87 86 85 86 85 82 79 79 79 74 58 59 63 82 83 80 80 79 79 74 72 70 67 67 66 68
85 87 89 90 90 91 91 89 90 89 89 88 88 88 88 87 86 85 84 84 83 79 78 79 78 77 72 56 56 67 84 81 76 78 77 80 77 63 65 73 66 64 74
85 86 89 91 90 89 90 87 88 88 87 89 88 88 87 86 85 84 81 81 78 80 83 78 75 65 74 55 54 60 86 79 78 74 76 61 70 60 63 76 74 66 65
83 85 87 88 87 88 85 86 88 85 88 89 86 85 84 84 83 79 79 77 79 77 75 70 71 73 68 66 54 55 80 80 80 75 72 73 58 57 57 64 75 65 65
82 84 84 85 87 86 84 84 85 87 85 83 83 79 78 81 78 75 77 78 77 72 69 69 71 76 75 56 56 54 55 61 77 74 72 72 55 54 56 65 56 57 64
79 82 82 81 84 81 79 79 82 81 83 79 78 78 77 79 77 76 75 74 79 77 75 71 73 80 81 79 58 56 57 59 73 75 62 56 53 55 58 56 56 56 78
78 80 79 79 78 80 76 77 78 77 77 75 73 76 72 74 76 80 82 83 83 82 81 78 79 81 80 76 75 74 79 63 69 66 68 65 64 58 66 68 68 80 82
77 78 76 76 76 78 76 74 74 76 73 70 73 74 68 63 66 65 71 72 63 63 79 77 76 75 77 65 51 51 69 71 63 63 68 64 66 71 71 74 79 81 79
77 76 76 75 75 74 73 71 70 72 69 68 72 68 67 71 70 66 58 49 48 45 43 43 56 63 49 45 43 45 45 46 49 66 65 63 64 62 65 71 73 75 72

GFSMW_sfc_temp_285.txt.gz
Temp
100 101 100 100 99 97 94 93 92 92 93 93 94 94 93 96 85 100 99 98 99 99 97 100 98 97 95 92 92 92 92 94 91 85 84 84 90 86 87 86 84 82 81
99 99 99 99 98 97 95 93 92 91 91 94 95 92 91 93 95 93 98 99 98 99 98 95 97 96 96 92 91 91 89 92 91 84 80 76 82 79 78 72 73 73 76
98 98 98 98 99 97 95 93 92 92 91 92 95 95 95 96 98 99 99 99 98 99 97 96 95 94 94 96 92 93 89 89 93 86 81 77 74 74 72 70 69 68 72
101 100 99 98 99 99 99 95 93 92 92 92 92 91 93 92 92 99 101 99 98 98 98 97 95 94 95 92 94 96 91 87 84 84 86 82 75 72 65 66 65 68 69
102 102 102 100 101 101 101 99 94 92 92 91 91 93 89 97 98 100 95 94 97 97 98 98 95 93 95 95 92 90 88 90 89 89 84 81 77 76 64 60 62 65 68
104 103 104 103 101 103 102 101 94 90 91 91 89 89 91 91 94 97 97 98 101 99 96 98 96 94 94 93 92 91 88 88 88 89 88 83 80 75 66 61 62 62 67
104 103 102 101 101 101 101 101 95 90 91 91 90 89 89 90 90 91 95 95 99 101 100 97 94 95 93 92 91 90 88 89 88 86 88 88 79 79 69 65 63 63 66
105 104 104 103 102 101 101 100 97 91 91 91 90 90 90 92 93 93 95 97 99 100 98 97 95 94 93 93 92 92 93 90 91 88 84 82 86 81 74 70 63 64 64
104 104 105 104 102 102 101 100 98 93 92 91 91 90 90 90 93 93 94 96 94 97 95 95 93 94 93 92 91 92 91 90 89 84 84 81 81 82 76 72 73 70 61
104 105 104 103 104 103 103 102 101 96 93 93 92 91 91 90 91 92 92 93 95 95 93 92 92 92 92 91 90 91 91 86 86 86 84 82 82 81 77 72 73 72 65
105 106 107 107 107 108 106 104 103 100 95 95 94 93 92 92 91 91 92 92 93 92 91 90 91 91 91 90 89 88 87 86 85 85 83 83 83 81 74 71 72 67 66
106 108 107 110 108 108 106 105 103 101 97 95 93 93 93 93 92 91 92 93 92 92 91 91 90 90 90 90 88 88 88 84 85 86 84 84 83 82 77 73 70 67 66
101 104 107 105 107 107 106 105 104 102 101 96 94 93 91 90 89 90 91 92 92 92 93 92 90 90 90 90 89 88 86 86 86 85 84 83 84 81 78 74 68 67 66
95 99 98 101 103 103 103 103 104 105 102 98 95 91 92 91 91 91 91 91 91 91 91 92 92 91 90 89 87 85 85 85 85 86 86 84 82 80 77 70 68 67 66
92 93 93 95 98 99 99 99 100 102 102 96 95 93 93 93 92 92 92 92 91 91 91 92 92 91 90 84 80 82 85 82 84 85 84 83 76 72 74 71 67 66 65
89 89 90 92 93 95 96 96 96 96 99 95 94 94 92 93 92 92 92 91 91 91 91 91 91 89 91 63 64 70 83 83 84 83 84 80 76 71 68 68 68 69 65
87 88 88 89 91 94 95 94 94 95 94 94 92 92 91 91 90 91 91 90 90 90 89 88 86 85 81 61 62 65 81 83 81 82 79 80 78 71 71 66 66 66 67
85 86 89 90 93 96 96 96 96 94 93 92 92 92 91 90 90 90 89 89 89 88 85 83 84 83 73 59 59 63 79 79 79 80 79 77 76 73 74 74 74 68 74
86 87 89 92 92 94 94 93 92 93 92 91 90 91 90 90 89 88 88 88 85 82 81 81 81 78 72 56 56 65 86 77 77 77 78 76 76 65 66 77 72 70 67
87 87 89 92 92 90 91 91 89 91 90 91 91 91 90 89 89 88 84 84 82 79 84 78 78 69 73 56 55 63 88 81 80 75 78 63 71 62 64 76 75 70 68
86 87 88 88 87 90 89 85 87 88 91 93 93 90 90 89 87 83 80 79 81 78 76 75 76 75 73 66 56 56 82 81 84 75 77 77 60 59 61 61 77 72 73
85 86 85 85 86 86 86 83 83 86 89 85 87 87 88 89 85 80 78 79 75 74 74 73 77 79 74 59 57 56 57 61 78 76 78 73 57 55 57 66 58 60 66
83 85 84 82 83 84 84 81 82 83 82 77 75 78 80 84 82 77 77 76 76 77 76 78 81 82 82 76 58 58 59 61 74 75 64 58 56 57 60 58 58 57 78
81 83 82 81 79 81 82 81 82 81 80 73 72 73 74 77 77 79 82 81 81 82 81 80 83 82 81 78 76 77 74 62 69 63 70 66 64 59 68 68 68 78 83
79 81 79 79 79 80 79 81 82 78 75 72 70 72 71 76 77 66 71 74 70 75 84 84 84 81 77 65 54 56 71 72 63 65 72 70 72 72 72 74 75 81 80
79 78 79 78 80 81 80 79 79 76 72 70 69 69 69 69 72 65 55 49 49 48 46 48 66 60 52 46 45 45 45 47 50 66 68 66 64 64 66 66 68 73 72